IGO314 VOHS-VOBL

Flight info

Callsign IGO314
Flight time 0h 44m
Altitude 32000
Route LURGI5 LURGI Q21 TELUV TELUV7E
Aircraft A21N/M-SDE2E3FGHIRWXY/LB1

Departure

Time 2026-05-04 08:50
Airport Rajiv Gandhi International Airport (VOHS)

Arrival

Time 2026-05-04 09:34
Airport Kempegowda International Airport Bengaluru (VOBL)
Time Latitude Longitude Altitude Speed Heading
2026-05-04 08:35 17.23422 78.43034 2001 ft 0 kts 360°
2026-05-04 08:40 17.23385 78.43034 2002 ft 2 kts 360°
2026-05-04 08:40 17.23370 78.43034 2003 ft 2 kts 359°
2026-05-04 08:40 17.23355 78.43034 2003 ft 2 kts 360°
2026-05-04 08:41 17.23341 78.43028 2003 ft 2 kts 43°
2026-05-04 08:41 17.23333 78.43015 2003 ft 2 kts 77°
2026-05-04 08:41 17.23332 78.43008 2002 ft 1 kts 94°
2026-05-04 08:41 17.23332 78.43003 2002 ft 0 kts 89°
2026-05-04 08:43 17.23332 78.43005 2002 ft 1 kts 89°
2026-05-04 08:43 17.23333 78.43024 2003 ft 4 kts 87°
2026-05-04 08:44 17.23334 78.43063 2004 ft 6 kts 87°
2026-05-04 08:44 17.23334 78.43121 2006 ft 9 kts 96°
2026-05-04 08:46 17.23103 78.43815 2026 ft 23 kts 88°
2026-05-04 08:46 17.23105 78.43988 2032 ft 24 kts 90°
2026-05-04 08:46 17.23105 78.44168 2038 ft 25 kts 89°
2026-05-04 08:46 17.23107 78.44359 2039 ft 27 kts 88°
2026-05-04 08:47 17.23110 78.44574 2037 ft 31 kts 89°
2026-05-04 08:47 17.23114 78.44809 2030 ft 30 kts 89°
2026-05-04 08:47 17.23058 78.44926 2027 ft 19 kts 169°
2026-05-04 08:47 17.22930 78.44911 2031 ft 17 kts 219°
2026-05-04 08:48 17.22907 78.44792 2034 ft 17 kts 266°
2026-05-04 08:48 17.22902 78.44530 2035 ft 68 kts 270°
2026-05-04 08:48 17.22894 78.43803 2027 ft 131 kts 268°
2026-05-04 08:48 17.22884 78.43059 2009 ft 168 kts 270°
2026-05-04 08:49 17.22857 78.41328 2510 ft 186 kts 269°
2026-05-04 08:50 17.16804 78.38692 5024 ft 213 kts 169°
2026-05-04 08:50 17.15289 78.38970 5238 ft 224 kts 171°
2026-05-04 08:51 17.13709 78.39253 5463 ft 235 kts 169°
2026-05-04 08:51 17.12066 78.39588 5661 ft 249 kts 168°
2026-05-04 08:51 17.10304 78.39948 5869 ft 265 kts 169°
2026-05-04 08:51 17.08418 78.40231 6123 ft 280 kts 173°
2026-05-04 08:52 17.06425 78.40467 6474 ft 290 kts 173°
2026-05-04 08:52 17.04406 78.40704 7031 ft 293 kts 173°
2026-05-04 08:52 17.02388 78.40949 7633 ft 294 kts 173°
2026-05-04 08:52 17.00362 78.41202 8240 ft 296 kts 173°
2026-05-04 08:53 16.98303 78.41463 8852 ft 298 kts 173°
2026-05-04 08:54 16.82679 78.43476 12320 ft 348 kts 172°
2026-05-04 08:55 16.80279 78.43787 12944 ft 350 kts 172°
2026-05-04 08:55 16.78653 78.43997 13356 ft 352 kts 172°
2026-05-04 08:55 16.75409 78.44418 14132 ft 356 kts 172°
2026-05-04 08:55 16.72921 78.44743 14424 ft 368 kts 173°
2026-05-04 08:57 16.53396 78.47269 16843 ft 420 kts 173°
2026-05-04 09:01 16.11559 78.49985 21873 ft 440 kts 190°
2026-05-04 09:01 16.08529 78.49487 22359 ft 435 kts 190°
2026-05-04 09:01 16.05555 78.48999 23110 ft 425 kts 190°
2026-05-04 09:01 16.02659 78.48529 23623 ft 422 kts 190°
2026-05-04 09:02 15.99742 78.48056 23916 ft 424 kts 190°
2026-05-04 09:02 15.96837 78.47588 24193 ft 426 kts 190°
2026-05-04 09:02 15.93903 78.47115 24493 ft 427 kts 190°
2026-05-04 09:02 15.90940 78.46639 24799 ft 428 kts 190°
2026-05-04 09:03 15.88947 78.46320 25007 ft 429 kts 190°
2026-05-04 09:03 15.84994 78.45689 25397 ft 430 kts 190°
2026-05-04 09:03 15.83050 78.45379 25577 ft 431 kts 190°
2026-05-04 09:03 15.79074 78.44743 25921 ft 434 kts 190°
2026-05-04 09:04 15.76066 78.44263 26187 ft 435 kts 190°
2026-05-04 09:04 15.73083 78.43786 26458 ft 436 kts 190°
2026-05-04 09:04 15.71042 78.43459 26632 ft 437 kts 190°
2026-05-04 09:04 15.67051 78.42821 26954 ft 439 kts 190°
2026-05-04 09:05 15.65013 78.42496 27114 ft 440 kts 191°
2026-05-04 09:05 15.60969 78.41849 27450 ft 442 kts 191°
2026-05-04 09:05 15.58919 78.41522 27610 ft 442 kts 191°
2026-05-04 09:05 15.54863 78.40873 27936 ft 444 kts 191°
2026-05-04 09:06 15.51806 78.40384 28276 ft 442 kts 191°
2026-05-04 09:07 15.31631 78.37170 30383 ft 440 kts 190°
2026-05-04 09:08 15.27592 78.36527 30713 ft 441 kts 191°
2026-05-04 09:08 15.24526 78.36040 30980 ft 442 kts 191°
2026-05-04 09:08 15.21487 78.35553 31234 ft 443 kts 191°
2026-05-04 09:08 15.18422 78.35059 31481 ft 444 kts 191°
2026-05-04 09:09 15.15397 78.34573 31721 ft 445 kts 191°
2026-05-04 09:09 15.09247 78.33585 31788 ft 446 kts 191°
2026-05-04 09:10 15.03107 78.32601 31796 ft 446 kts 191°
2026-05-04 09:10 14.96969 78.31620 31792 ft 446 kts 191°
2026-05-04 09:11 14.91838 78.30801 31787 ft 446 kts 191°
2026-05-04 09:11 14.84663 78.29660 31783 ft 446 kts 191°
2026-05-04 09:12 14.78537 78.28681 31780 ft 446 kts 191°
2026-05-04 09:14 14.54859 78.24877 28013 ft 461 kts 191°
2026-05-04 09:14 14.51664 78.24365 27109 ft 462 kts 190°
2026-05-04 09:14 14.47446 78.23693 26142 ft 457 kts 190°
2026-05-04 09:14 14.45364 78.23361 25714 ft 454 kts 190°
2026-05-04 09:15 14.41242 78.22705 24926 ft 445 kts 190°
2026-05-04 09:15 14.38181 78.22218 24372 ft 439 kts 190°
2026-05-04 09:15 14.36175 78.21899 24009 ft 435 kts 190°
2026-05-04 09:15 14.33200 78.21425 23478 ft 429 kts 190°
2026-05-04 09:17 14.10239 78.15892 19274 ft 393 kts 206°
2026-05-04 09:18 14.08596 78.15098 18944 ft 391 kts 206°
2026-05-04 09:18 14.06156 78.13916 18442 ft 389 kts 206°
2026-05-04 09:18 14.02895 78.12342 17789 ft 385 kts 206°
2026-05-04 09:18 14.00479 78.11180 17310 ft 382 kts 205°
2026-05-04 09:19 13.98055 78.10015 16803 ft 380 kts 205°
2026-05-04 09:19 13.96469 78.09254 16467 ft 378 kts 205°
2026-05-04 09:19 13.94094 78.08114 15972 ft 376 kts 205°
2026-05-04 09:19 13.91723 78.06977 15477 ft 374 kts 205°
2026-05-04 09:20 13.88584 78.05476 14812 ft 372 kts 204°
2026-05-04 09:20 13.86238 78.04360 14314 ft 371 kts 204°
2026-05-04 09:20 13.83899 78.03246 13926 ft 365 kts 204°
2026-05-04 09:20 13.81630 78.02163 13648 ft 350 kts 204°
2026-05-04 09:21 13.80165 78.01463 13562 ft 338 kts 204°
2026-05-04 09:21 13.78050 78.00453 13447 ft 331 kts 204°
2026-05-04 09:21 13.75349 77.99164 13306 ft 315 kts 204°
2026-05-04 09:21 13.73379 77.98222 13217 ft 314 kts 204°
2026-05-04 09:22 13.71382 77.97267 13126 ft 314 kts 204°
2026-05-04 09:22 13.69382 77.96313 13044 ft 315 kts 204°
2026-05-04 09:22 13.67408 77.95377 12958 ft 314 kts 202°
2026-05-04 09:22 13.66006 77.94905 12958 ft 313 kts 191°
2026-05-04 09:23 13.63110 77.94632 12966 ft 313 kts 180°
2026-05-04 09:23 13.61675 77.94594 12967 ft 313 kts 180°
2026-05-04 09:23 13.59487 77.94552 12967 ft 313 kts 180°
2026-05-04 09:23 13.56577 77.94486 12952 ft 305 kts 180°
2026-05-04 09:25 13.42840 77.94073 11014 ft 283 kts 181°
2026-05-04 09:25 13.40870 77.94014 10579 ft 280 kts 181°
2026-05-04 09:26 13.38933 77.93956 10216 ft 273 kts 181°
2026-05-04 09:26 13.37056 77.93900 9884 ft 268 kts 181°
2026-05-04 09:26 13.35195 77.93843 9484 ft 266 kts 181°
2026-05-04 09:26 13.33351 77.93787 9104 ft 265 kts 181°
2026-05-04 09:27 13.31490 77.93764 8754 ft 264 kts 174°
2026-05-04 09:27 13.29701 77.94179 8405 ft 262 kts 158°
2026-05-04 09:27 13.27493 77.95177 8121 ft 261 kts 153°
2026-05-04 09:27 13.26402 77.95705 7987 ft 257 kts 153°
2026-05-04 09:28 13.24803 77.96472 7769 ft 251 kts 154°
2026-05-04 09:28 13.22713 77.97457 7635 ft 242 kts 154°
2026-05-04 09:28 13.21685 77.97879 7494 ft 237 kts 162°
2026-05-04 09:28 13.19619 77.97501 7048 ft 226 kts 219°
2026-05-04 09:29 13.19018 77.96691 7049 ft 212 kts 249°
2026-05-04 09:29 13.19078 77.94753 6861 ft 204 kts 288°
2026-05-04 09:29 13.19538 77.93388 6610 ft 201 kts 293°
2026-05-04 09:29 13.20021 77.92062 6366 ft 200 kts 292°
2026-05-04 09:30 13.20277 77.91146 6207 ft 201 kts 286°
2026-05-04 09:30 13.20487 77.89714 5970 ft 202 kts 278°
2026-05-04 09:30 13.20576 77.87792 5648 ft 202 kts 274°
2026-05-04 09:30 13.20588 77.86856 5476 ft 194 kts 273°
2026-05-04 09:31 13.20592 77.85523 5228 ft 181 kts 272°
2026-05-04 09:31 13.20598 77.83829 4941 ft 178 kts 273°
2026-05-04 09:31 13.20604 77.82561 4731 ft 177 kts 273°
2026-05-04 09:31 13.20610 77.81722 4589 ft 176 kts 273°
2026-05-04 09:32 13.20620 77.80135 4281 ft 157 kts 273°
2026-05-04 09:32 13.20625 77.79391 4158 ft 156 kts 274°
2026-05-04 09:34 13.20697 77.71709 2930 ft 145 kts 274°
2026-05-04 09:34 13.20712 77.70827 2958 ft 102 kts 269°
2026-05-04 09:34 13.20705 77.70265 2984 ft 25 kts 269°
2026-05-04 09:34 13.20674 77.70100 2988 ft 22 kts 253°
2026-05-04 09:35 13.20634 77.70008 2989 ft 21 kts 245°
2026-05-04 09:35 13.20539 77.70007 2987 ft 16 kts 97°
2026-05-04 09:35 13.20533 77.70084 2987 ft 16 kts 90°
2026-05-04 09:35 13.20532 77.70244 2985 ft 17 kts 92°
2026-05-04 09:37 13.20242 77.70811 2971 ft 19 kts 90°
2026-05-04 09:37 13.20232 77.70873 2969 ft 7 kts 128°
2026-05-04 09:38 13.20187 77.70879 2970 ft 6 kts 191°
2026-05-04 09:38 13.20170 77.70877 2970 ft 0 kts 180°